Regional Weather Roundup
Issued by NWS

Home | Current Version | Previous Version | Text Only | Print | Product List | Glossary On
Versions: 1 2 3 4 5 6 7 8 9 10 11 12 13 14 15 16 17 18 19 20 21 22 23 24 25 26 27 28 29 30 31 32 33 34 35 36 37 38 39 40 41 42 43 44 45 46 47 48 49 50
000
ASUS43 KDTX 210210
RWRMI
MICHIGAN HOURLY REGIONAL WEATHER ROUNDUP
NATIONAL WEATHER SERVICE DETROIT/PONTIAC MI
1000 PM EDT MON OCT 20 2014

NOTE: "FAIR" INDICATES FEW OR NO CLOUDS BELOW 12,000 FEET WITH NO
SIGNIFICANT WEATHER AND/OR OBSTRUCTION TO VISIBILITY.

MIZ047>049-052>055-059>063-066>070-074>076-081>083-210300-
SOUTHEAST LOWER MICHIGAN

CITY           SKY/WX    TMP DP  RH WIND       PRES   REMARKS
ADRIAN         CLOUDY    54  48  80 N10       29.88R
ALMA           CLOUDY    49  43  79 N9        29.90S
ANN ARBOR      CLOUDY    53  49  86 NW9       29.86R
BAD AXE        CLOUDY    49  48  98 NW9       29.86S
CARO           CLOUDY    50  46  84 CALM      29.87R
DETROIT CITY   LGT RAIN  56  49  77 NW6       29.85R
DETROIT        LGT RAIN  52  50  93 W5        29.85S
FLINT          CLOUDY    51  46  83 N8        29.89R
GROSSE ILE     CLOUDY    54  48  82 W6        29.84R
HILLSDALE      CLOUDY    53  51  93 NW7       29.89R
HOWELL         CLOUDY    50  46  84 NW10G16   29.87R

CITY           SKY/WX    TMP DP  RH WIND       PRES   REMARKS
JACKSON        CLOUDY    51  48  89 VRB7      29.88R
LAMBERTVILLE   CLOUDY    54  50  87 W3        29.86S FOG
LANSING        CLOUDY    51  44  77 N7        29.91R
LAPEER         CLOUDY    49  44  82 N9        29.86R
MASON          CLOUDY    51  46  84 N10       29.89R
MONROE         RAIN      52  52 100 W3        29.84S
MT. CLEMENS    CLOUDY    54  49  82 NW7       29.82R
PONTIAC        LGT RAIN  50  47  89 NW6       29.85R
PORT HOPE        N/A     50  46  86 NW6       29.84R
PORT HURON     CLOUDY    50  50 100 CALM      29.84R
TRI CITIES     CLOUDY    51  43  74 NW10      29.89S
TROY           LGT RAIN  53  49  87 NW6       29.87R
SAGINAW HB     CLOUDY    50  45  81 NW10      29.88R
$$
MIZ043>046-050>051-056>058-064>065-071>073-077>080-210300-
SOUTHWEST LOWER MICHIGAN

CITY           SKY/WX    TMP DP  RH WIND       PRES   REMARKS
BATTLE CREEK   CLOUDY    52  42  69 N14       29.92R
BENTON HARBOR  CLOUDY    52  45  77 VRB7G17   29.96R
BIG RAPIDS     CLOUDY    46  46 100 NW6       29.93R
COLDWATER      CLOUDY    53  48  83 NW8       29.91R
FREMONT        DRIZZLE   46  45  94 NW5       29.95R
HOLLAND        CLOUDY    51  43  74 N8        29.96R
GRAND RAPIDS   CLOUDY    50  43  77 NW13      29.93R
IONIA          CLOUDY    50  43  76 NW12      29.91R
KALAMAZOO      CLOUDY    51  43  74 N14       29.93R
LUDINGTON      CLOUDY    47  45  92 N10G16    29.97R
MARSHALL       CLOUDY    52  45  78 NW5       29.90R
MOUNT PLEASANT CLOUDY    48  43  81 NW5       29.90R
MUSKEGON       CLOUDY    49  45  86 NW5       29.96S
SOUTH HAVEN    CLOUDY    53  45  75 N14G21    29.95R
$$
MIZ016>042-210300-
NORTHERN LOWER MICHIGAN

CITY           SKY/WX    TMP DP  RH WIND       PRES   REMARKS
ALPENA         CLOUDY    46  44  93 NW7       29.87R FOG
BEAVER ISLAND  CLOUDY    46  44  91 NW10      29.94R
BELLAIRE       CLOUDY    47  42  81 NW6       29.93R
CADILLAC       DRIZZLE   44  43  97 NW9       29.92R
CHARLEVOIX     CLOUDY    47  44  88 N13G20    29.96R
FRANKFORT      LGT RAIN  47  42  82 N10G21    29.96R
GAYLORD        CLOUDY    44  41  89 NW6       29.89R
GRAYLING       CLOUDY    46  44  91 NW7       29.91R
HARBOR SPRINGS CLOUDY    47  43  84 NW7       29.91S
HOUGHTON LAKE  CLOUDY    46  42  86 NW8       29.90R
MANISTEE       CLOUDY    46  39  76 N13G18    29.97R
OSCODA         CLOUDY    47  46  96 NW6       29.86R
PELLSTON       CLOUDY    47  43  86 NW9       29.91R
TRAVERSE CITY  CLOUDY    48  42  80 NW13      29.93R
$$
MIZ007>008-015-210300-
EASTERN UPPER MICHIGAN

CITY           SKY/WX    TMP DP  RH WIND       PRES   REMARKS
KINROSS        CLOUDY    46  43  87 NE9       29.91R
MACKINAC ISLAN CLOUDY    46  45  97 N6        29.91R
NEWBERRY       CLOUDY    43  41  92 N8        29.94R
S. S. MARIE    CLOUDY    46  38  73 NE8       29.92R
MUNISING         N/A     46  42  86 N15       29.99R
$$
MIZ004>006-011>014-085-210300-
CENTRAL UPPER MICHIGAN

CITY           SKY/WX    TMP DP  RH WIND       PRES   REMARKS
MANISTIQUE     DRIZZLE   43  42  97 NW9       29.97R
ESCANABA       CLOUDY    45  37  76 N9G16     30.00S
MENOMINEE      CLOUDY    46  37  71 N9G16     30.00S
SAWYER-GWINN   CLOUDY    41  37  87 N14G21    30.01R
$$
MIZ001>003-009>011-084-210300-
WESTERN UPPER MICHIGAN

CITY           SKY/WX    TMP DP  RH WIND       PRES   REMARKS
IRON MOUNTAIN  CLOUDY    44  38  79 N5        30.01R
HOUGHTON       CLOUDY    42  36  79 N10       30.06R
COPPER HARBOR    N/A     44  38  79 NE21      30.06R
IRONWOOD       CLOUDY    43  39  87 NE6       30.05S
$$

ABBREVIATIONS USED IN REMARKS
   TC - TEMPERATURE IN CELSIUS
  WCI - WIND CHILL INDEX
   HX - HEAT INDEX
  VSB - VISIBILITY




USA.gov is the U.S. government's official web portal to all federal, state and local government web resources and services.